Content
SEND FEEDBACK

Daily
Averages
Monthly
Summary
United States of America

GREENSBORO, NORTH CAROLINA


Home > North America > United States > North Carolina
Elevation: 270 meters     Latitude: 36 05N     Longitude: 079 57W

WEATHER
 
SELECT A DAY
Number of Records: 102,807;   Date Range: 1/1/95 - 8/12/14
 
SHARE

PRINT THIS DATA

[ ← Previous Day ]
WEATHER ALMANAC - 31 JANUARY, 2013
[ Next Day → ]
[ °F ]   °C
Weather ElementAverageHighLow
Temperature5.4 °C12.2 °C (12:54 am)0.6 °C (11:54 pm)
Dewpoint-3.6 °C10 °C (12:54 am)-8.3 °C (6:54 pm)
Humidity54.3 %87 % (3:29 am)35 % (2:54 pm)
Barometer1008.8 hPa1015.6 hPa (10:54 pm)997 hPa (12:54 am)
Wind Speed28.8 km/h50.1 km/h (1:54 pm)
Wind Gust61.2 km/h (1:54 pm)
Weather ElementAverage
Visibility15.9 km
Wind DirectionW (264.4 °)

Weather ElementTotal
Precipitation0.25 mm
Heating Degree Days11.9 (Base 18.3)
Averaged from 25 records on 31 January, 2013
WEATHER CONDITIONS BREAKOUT
WIND DIRECTION BREAKOUT
WEATHER BY HOUR - 31 JANUARY, 2013
[ °F ]   °C
Local TimeTemperatureDewpointHumidityBarometerVisibilityWind DirectionWind SpeedGust SpeedPrecipitationEventsConditions
12:54 AM12.2 °C10 °C86 %997 hPa16.1 kmSW (230°)27.8 km/h42.6 km/h0.25 mmOvercast
1:54 AM10.6 °C7.8 °C83 %998 hPa16.1 kmSW (230°)40.7 km/h57.5 km/h0 mmOvercast
2:54 AM9.4 °C6.7 °C83 %998.6 hPa12.9 kmWSW (240°)31.5 km/h46.3 km/h0 mmRainLight Rain
3:29 AM8 °C6 °C87 %999.7 hPa16.1 kmWSW (250°)25.9 km/h40.7 km/h0 mmMostly Cloudy
3:54 AM8.9 °C3.9 °C71 %1000 hPa16.1 kmWest (270°)38.9 km/h51.8 km/h0 mmMostly Cloudy
4:54 AM7.2 °C0 °C60 %1002 hPa16.1 kmWest (270°)35.2 km/h59.2 km/hPartly Cloudy
5:54 AM5.6 °C-2.2 °C58 %1003.7 hPa16.1 kmWest (280°)31.5 km/hPartly Cloudy
6:54 AM4.4 °C-2.8 °C60 %1006.1 hPa16.1 kmWest (280°)27.8 km/h42.6 km/hScattered Clouds
7:54 AM3.3 °C-5 °C55 %1007.8 hPa16.1 kmWNW (300°)25.9 km/hClear
8:54 AM3.9 °C-5.6 °C50 %1009.5 hPa16.1 kmWest (280°)27.8 km/h48.1 km/hClear
9:54 AM4.4 °C-5.6 °C49 %1010.5 hPa16.1 kmWNW (290°)31.5 km/h46.3 km/hScattered Clouds
10:54 AM4.4 °C-6.1 °C47 %1011.2 hPa16.1 kmWest (280°)37 km/h50.1 km/hScattered Clouds
11:54 AM6.1 °C-5.6 °C43 %1011.5 hPa16.1 kmWest (280°)25.9 km/h42.6 km/hScattered Clouds
12:54 PM6.1 °C-7.2 °C38 %1010.8 hPa16.1 kmWest (270°)38.9 km/h51.8 km/hScattered Clouds
1:54 PM7.2 °C-7.2 °C36 %1011.2 hPa16.1 kmWNW (290°)50.1 km/h61.2 km/hScattered Clouds
2:54 PM6.7 °C-7.8 °C35 %1011.9 hPa16.1 kmWNW (290°)44.4 km/h59.2 km/hScattered Clouds
3:54 PM6.7 °C-7.8 °C35 %1012.9 hPa16.1 kmWNW (290°)40.7 km/h61.2 km/hScattered Clouds
4:54 PM5.6 °C-7.8 °C38 %1013.9 hPa16.1 kmWest (280°)33.3 km/h44.4 km/hPartly Cloudy
5:54 PM4.4 °C-7.8 °C41 %1014.2 hPa16.1 kmWest (280°)33.3 km/h46.3 km/hPartly Cloudy
6:54 PM3.3 °C-8.3 °C43 %1014.9 hPa16.1 kmWest (270°)14.8 km/hClear
7:54 PM2.8 °C-8.3 °C44 %1015.2 hPa16.1 kmWSW (250°)16.7 km/hClear
8:54 PM1.1 °C-7.8 °C52 %1015.2 hPa16.1 kmSW (230°)9.3 km/hClear
9:54 PM1.1 °C-7.8 °C52 %1015.2 hPa16.1 kmSW (230°)11.1 km/hClear
10:54 PM1.1 °C-7.8 °C52 %1015.6 hPa16.1 kmWSW (240°)9.3 km/hClear
11:54 PM0.6 °C-6.7 °C59 %1014.6 hPa16.1 kmSSW (210°)9.3 km/hPartly Cloudy
Hourly data recorded from KGSO, located 0 kilometers away from Greensboro, North Carolina







STORIES FROM OUR PARTNERS